Lexington Weather

Lexington, Massachusetts, USA

49°F
12/8/2022 2:44pm 
  • Lexington Conditions: Clear
  • Temperature: 48.7°F / 9.3°CColder 1.5°F than last hour.
  • Dew Point: 35.1°FDecreased 0.9°Fsince last hour.
  • Relative Humidity: 59%Increased 1.0% since last hour.
  • Wind: Wind from N N Calm, 10-min avg: 4 mph, gust: 9 mph
  • Barometer: 30.07 in Steady
  • Visibility: 10 miles
  • Rain Today: 0.00 in
  •   

Warning: Undefined variable $rc in /homepages/6/d276339138/htdocs/weather/20190804/ssi/nwsProduct.php on line 323

Warning: Undefined variable $rc in /homepages/6/d276339138/htdocs/weather/20190804/ssi/nwsProduct.php on line 325

Warning: Undefined variable $rc in /homepages/6/d276339138/htdocs/weather/20190804/ssi/nwsProduct.php on line 323

Warning: Undefined variable $rc in /homepages/6/d276339138/htdocs/weather/20190804/ssi/nwsProduct.php on line 325

Warning: Undefined variable $rc in /homepages/6/d276339138/htdocs/weather/20190804/ssi/nwsProduct.php on line 323

Warning: Undefined variable $rc in /homepages/6/d276339138/htdocs/weather/20190804/ssi/nwsProduct.php on line 325

Warning: Undefined variable $rc in /homepages/6/d276339138/htdocs/weather/20190804/ssi/nwsProduct.php on line 323

Warning: Undefined variable $rc in /homepages/6/d276339138/htdocs/weather/20190804/ssi/nwsProduct.php on line 325

Warning: Undefined variable $rc in /homepages/6/d276339138/htdocs/weather/20190804/ssi/nwsProduct.php on line 323

Warning: Undefined variable $rc in /homepages/6/d276339138/htdocs/weather/20190804/ssi/nwsProduct.php on line 325

Warning: Undefined variable $rc in /homepages/6/d276339138/htdocs/weather/20190804/ssi/nwsProduct.php on line 323

Warning: Undefined variable $rc in /homepages/6/d276339138/htdocs/weather/20190804/ssi/nwsProduct.php on line 325

Warning: Undefined variable $rc in /homepages/6/d276339138/htdocs/weather/20190804/ssi/nwsProduct.php on line 323

Warning: Undefined variable $rc in /homepages/6/d276339138/htdocs/weather/20190804/ssi/nwsProduct.php on line 325

Regional Weather Roundup
for Boston, MA

        
000
ASUS41 KBOX 060410
RWRBOX

REGIONAL WEATHER ROUNDUP
NATIONAL WEATHER SERVICE BOSTON/NORTON MA
1100 PM EST MON DEC 05 2022

NOTE:  "FAIR" INDICATES FEW OR NO CLOUDS BELOW 12,000 FEET WITH NO 
SIGNIFICANT WEATHER AND/OR OBSTRUCTIONS TO VISIBILITY.

MAZALL-060500-
EASTERN MASSACHUSETTS
  
CITY           SKY/WX    TMP DP  RH WIND       PRES   REMARKS
BOSTON         PTCLDY    39  35  86 S7        30.38S                  
BEVERLY        MOCLDY    33  32  96 CALM      30.38R                  
LAWRENCE       CLOUDY    36  33  89 CALM      30.40R                  
BEDFORD        MOCLDY    30  27  88 CALM      30.37R                  
NORWOOD        PTCLDY    31  27  85 CALM      30.37S                  
MARSHFIELD       N/A     39  36  87 S5        30.38S                  
PLYMOUTH       CLEAR     37  34  89 CALM      30.37S                  
TAUNTON          N/A    N/A N/A N/A MISG      30.37S                  
NEW BEDFORD    CLEAR     36  35  96 SE3       30.37S                  
$$

MAZALL-060500-
CAPE COD AND THE ISLANDS
  
CITY           SKY/WX    TMP DP  RH WIND       PRES   REMARKS
FALMOUTH       CLEAR     36  36 100 SE5       30.38S WCI  32          
HYANNIS        CLEAR     42  39  89 SE3       30.37S                  
CHATHAM        CLEAR     45  38  76 SE6       30.39F                  
PROVINCETOWN   CLEAR     43  39  86 SE6       30.40R                  
NANTUCKET      CLEAR     43  38  82 E10       30.39S                  
MARTHAS VNYRD  CLEAR     46  41  82 SE8       30.37S                  
$$
 
MAZALL-060500-
CENTRAL AND WESTERN MASSACHUSETTS
  
CITY           SKY/WX    TMP DP  RH WIND       PRES   REMARKS
WORCESTER      MOCLDY    40  33  76 S7        30.32S                  
FITCHBURG      PTCLDY    31  26  82 CALM      30.36S                  
ORANGE         MOCLDY    28  25  88 CALM      30.34R                  
SPRINGFIELD    MOCLDY    27  26  95 CALM      30.31S                  
WESTFIELD      MOCLDY    27  23  85 W3        30.33S                  
NORTH ADAMS    MOCLDY    29  20  69 E3        30.29R                  
PITTSFIELD     MOCLDY    28  20  71 CALM      30.27R                  
$$
 
RIZALL-060500-
RHODE ISLAND
  
CITY           SKY/WX    TMP DP  RH WIND       PRES   REMARKS
PROVIDENCE     PTCLDY    34  31  88 W5        30.37R WCI  30          
NEWPORT        CLEAR     46  40  79 SE9       30.35S                  
BLOCK ISLAND   CLEAR     47  41  80 SE8       30.36R                  
SMITHFIELD     MOCLDY    33  32  96 N3        30.37R                  
WESTERLY       CLOUDY    35  32  88 CALM      30.35S                  
$$
 
CTZALL-060500-
CONNECTICUT
  
CITY           SKY/WX    TMP DP  RH WIND       PRES   REMARKS
BRADLEY INTL   PTCLDY    28  25  88 NW5       30.33F WCI  23          
HARTFORD       MOCLDY    33  31  92 CALM      30.34F                  
BRIDGEPORT     MOCLDY    36  32  85 N3        30.32S                  
DANBURY        MOCLDY    28  22  78 CALM      30.32S                  
GROTON         PTCLDY    37  34  89 N3        30.34F                  
NEW HAVEN      PTCLDY    35  32  88 CALM      30.32F                  
CHESTER        FAIR      37  36  93 CALM      30.32F                  
MERIDEN        PTCLDY    31  27  85 CALM      30.33F                  
WILLIMANTIC    MOCLDY    30  29  96 NE3       30.35F                  
OXFORD         MOCLDY    31  29  92 E6        30.31F WCI  25          
$$

MEZ002-015-021-024-NHZ003-005-008-011-012-014-VTZ005-008-060500-
NORTHERN NEW ENGLAND
  
CITY           SKY/WX    TMP DP  RH WIND       PRES   REMARKS
PORTLAND ME    CLEAR     41  33  73 SW6       30.39R                  
BANGOR ME      MOCLDY    38  33  82 S6        30.39S                  
CONCORD NH     PTCLDY    35  30  82 SW3       30.35R                  
MANCHESTER NH  MOCLDY    38  31  76 SE9       30.34F WCI  31          
NASHUA NH      PTCLDY    28  28 100 CALM      30.37S                  
PORTSMOUTH NH  CLOUDY    36  31  83 CALM      30.38R                  
JAFFREY NH     MOCLDY    32  28  85 CALM      30.32R                  
KEENE NH       MOCLDY    29  26  89 CALM        N/A                   
BURLINGTON VT  CLOUDY    42  15  33 S12G21    30.22R                  
MT. WASHINGTON MOCLDY    23   1  39 SW36G41     N/A  WCI   4          
$$

NYZ052-076-060500-
EASTERN NEW YORK
  
CITY           SKY/WX    TMP DP  RH WIND       PRES   REMARKS
ALBANY         MOCLDY    39  23  52 SE14G22   30.27R WCI  31          
NEW YORK CITY  MOCLDY    41  32  70 CALM      30.31S                  
$$
 
ANZALL-060500-
MARINE OBSERVATIONS
  
STATION/POSITION TIME  TEMP    WIND        PRES    VSBY  WAVE
                       AIR SEA DIR/SP/G                  HT/PER
                 (UTC) (F)     (DEG/KT/KT) (MB)    (MI)  (FT/S)
BOSTON BUOY      0350      51  160/ 14/ 16 1029.1R         3/ 4
BUZZARDS BAY     0300   49     150/ 14/ 15 1028.7R
NANTUCKET SOUND  0350   48 49  130/ 14/ 17 1028.7R         1/ 2
MASS BAY-STELLWA 0204   48 50  180/ 14/ 17 1027.6R  1 7/8  3/ 5
ISLE OF SHOALS   0300   46     190/ 13/ 14 1028.2R
S OF BLOCK IS    0356      54                N/A           3/11
$$

......................KEY.........................
  SKY/WX - SKY CONDITION/PRESENT WEATHER
  TMP    - TEMPERATURE IN FAHRENHEIT
  DWPT   - DEWPOINT IN FAHRENHEIT
  RH     - RELATIVE HUMIDITY IN PERCENT
  WIND   - DIRECTION AND SPEED IN MPH
  PRES   - MEAN SEA LEVEL PRESSURE IN INCHES OF HG
  WCI    - WIND CHILL INDEX
  VSB    - VISIBILITY IN MILES
  HX     - HEAT INDEX
  TC     - TEMPERATURE IN CELSIUS
  VRB    - VARIABLE WIND DIRECTION
  N/A    - NOT AVAILABLE
  
      

Other recent Regional Weather Roundups

Thu Dec 8, 2:10pm

Thu Dec 8, 1:10pm

Thu Dec 8, 12:10pm

Thu Dec 8, 11:10am

Thu Dec 8, 10:10am

Thu Dec 8, 9:10am

Thu Dec 8, 8:10am

Thu Dec 8, 7:10am

Thu Dec 8, 6:10am

Thu Dec 8, 5:10am

Thu Dec 8, 4:10am

Thu Dec 8, 3:10am

Thu Dec 8, 2:10am

Thu Dec 8, 1:10am

Thu Dec 8, 12:10am

Wed Dec 7, 11:10pm

Wed Dec 7, 10:10pm

Wed Dec 7, 9:10pm

Wed Dec 7, 8:10pm

Wed Dec 7, 7:10pm

Wed Dec 7, 6:10pm

Wed Dec 7, 5:10pm

Wed Dec 7, 4:10pm

Wed Dec 7, 3:10pm

Wed Dec 7, 2:10pm

Wed Dec 7, 1:10pm

Wed Dec 7, 12:10pm

Wed Dec 7, 11:10am

Wed Dec 7, 10:10am

Wed Dec 7, 9:10am

Wed Dec 7, 8:10am

Wed Dec 7, 7:10am

Wed Dec 7, 6:10am

Wed Dec 7, 5:10am

Wed Dec 7, 4:10am

Wed Dec 7, 3:10am

Wed Dec 7, 2:10am

Wed Dec 7, 1:10am

Wed Dec 7, 12:10am

Tue Dec 6, 11:10pm

Tue Dec 6, 10:10pm

Tue Dec 6, 9:10pm

Tue Dec 6, 8:10pm

Tue Dec 6, 7:10pm

Tue Dec 6, 6:10pm

Tue Dec 6, 5:10pm

Tue Dec 6, 4:10pm

Tue Dec 6, 3:10pm

Tue Dec 6, 2:10pm

Tue Dec 6, 1:10pm

Tue Dec 6, 12:10pm

Tue Dec 6, 11:10am

Tue Dec 6, 10:10am

Tue Dec 6, 9:10am

Tue Dec 6, 8:10am

Tue Dec 6, 7:10am

Tue Dec 6, 6:10am

Tue Dec 6, 5:10am

Tue Dec 6, 4:10am

Tue Dec 6, 3:10am

Tue Dec 6, 2:10am

Tue Dec 6, 1:10am

Tue Dec 6, 12:10am

Mon Dec 5, 10:10pm

Mon Dec 5, 9:10pm

Mon Dec 5, 8:10pm

Mon Dec 5, 7:10pm

Mon Dec 5, 6:10pm

Mon Dec 5, 5:10pm

Mon Dec 5, 4:10pm

Mon Dec 5, 3:10pm

Mon Dec 5, 2:10pm

Mon Dec 5, 1:10pm

Mon Dec 5, 12:10pm

Mon Dec 5, 11:10am

Mon Dec 5, 10:10am

Mon Dec 5, 9:10am

Mon Dec 5, 8:10am

Mon Dec 5, 7:10am

Mon Dec 5, 6:10am

Mon Dec 5, 5:10am

Mon Dec 5, 4:10am

Mon Dec 5, 3:10am

Mon Dec 5, 2:10am

Mon Dec 5, 1:10am

Mon Dec 5, 12:10am

Sun Dec 4, 11:10pm

Sun Dec 4, 10:10pm

Sun Dec 4, 9:10pm

Sun Dec 4, 8:10pm

Sun Dec 4, 7:10pm

Sun Dec 4, 6:10pm

Sun Dec 4, 5:10pm

Sun Dec 4, 4:10pm

Sun Dec 4, 3:10pm

Sun Dec 4, 2:10pm

Sun Dec 4, 1:10pm

Sun Dec 4, 12:10pm

Sun Dec 4, 11:10am

Sun Dec 4, 10:10am

Sun Dec 4, 9:10am

Sun Dec 4, 8:10am

Sun Dec 4, 7:10am

Sun Dec 4, 6:10am

Sun Dec 4, 5:10am

Sun Dec 4, 4:10am

Sun Dec 4, 3:10am

Sun Dec 4, 2:10am

Sun Dec 4, 1:10am

Sun Dec 4, 12:10am

Sat Dec 3, 11:10pm

Sat Dec 3, 10:10pm

Sat Dec 3, 9:10pm

Sat Dec 3, 8:10pm

Sat Dec 3, 7:10pm

Sat Dec 3, 6:10pm

Sat Dec 3, 5:10pm

Sat Dec 3, 4:10pm

Sat Dec 3, 3:10pm

Sat Dec 3, 2:10pm

Sat Dec 3, 1:10pm

Sat Dec 3, 12:10pm

Sat Dec 3, 11:10am

Sat Dec 3, 10:10am

Sat Dec 3, 9:10am

Sat Dec 3, 8:10am

Sat Dec 3, 7:10am

Sat Dec 3, 6:10am

Sat Dec 3, 5:10am

Sat Dec 3, 4:10am

Sat Dec 3, 3:10am

Sat Dec 3, 2:10am

Sat Dec 3, 1:10am

Sat Dec 3, 12:10am

Fri Dec 2, 11:10pm

Fri Dec 2, 10:10pm

Fri Dec 2, 9:10pm

Fri Dec 2, 8:10pm

Fri Dec 2, 7:10pm

Fri Dec 2, 6:10pm

Fri Dec 2, 5:10pm

Fri Dec 2, 4:10pm

Fri Dec 2, 3:10pm

Fri Dec 2, 2:10pm

Fri Dec 2, 1:10pm

Fri Dec 2, 12:10pm

Fri Dec 2, 11:10am

Fri Dec 2, 10:10am

Fri Dec 2, 9:10am

Fri Dec 2, 8:10am

Fri Dec 2, 7:10am

Fri Dec 2, 6:10am

Fri Dec 2, 5:10am

Fri Dec 2, 4:10am

Fri Dec 2, 3:10am

Fri Dec 2, 2:10am

Fri Dec 2, 1:10am

Fri Dec 2, 12:10am

Thu Dec 1, 11:10pm

Thu Dec 1, 10:10pm

Thu Dec 1, 9:10pm

Thu Dec 1, 8:10pm

Thu Dec 1, 7:10pm

Thu Dec 1, 6:10pm

Thu Dec 1, 5:10pm

Thu Dec 1, 4:10pm

Thu Dec 1, 3:10pm

Meta data:

ID: 759dee99-8419-4950-8c1c-34793a59105a
Link: https://api.weather.gov/products/759dee99-8419-4950-8c1c-34793a59105a